User: anonymous   Login
Location: Allison's Woods
(35.8809°N, 80.8140°W)
Time: 23:38:42
(UTC-05:00)
Language:

Iridium 39 - Orbit

View from above orbital plane
View from above orbital plane
View from above satellite
View from above satellite

Ground track
Ground track

The orbit data is extracted from the following two-line orbital elements,

1 25042U 97069D   17348.39965051  .00000136  00000-0  32253-4 0  9994
2 25042  86.3914 302.3086 0021145  75.1783 285.1760 14.46205093 52765
Epoch (UTC): 14 December 2017 09:35:29
Eccentricity: 0.0021145
inclination: 86.3914°
perigee height: 723 km
apogee height: 753 km
right ascension of ascending node: 302.3086°
argument of perigee: 75.1783°
revolutions per day: 14.46205093
mean anomaly at epoch: 285.1760°
orbit number at epoch: 5276

The dashed part of the orbit path shows where the satellite is in the earth's shadow,  

DLR